LiveATC.Net - Listen to live air traffic control over the Internet!


ICAO: LFMD  IATA: CEQ   Airport: Mandelieu Airport
City: Cannes
Country: France   Continent: Europe
LFMD METAR Weather: LFMD 240000Z AUTO 36003KT 320V040 CAVOK 15/13 Q1019
LFMD Flight Activity (FlightAware)

LFMD Ground/Tower
Feed Status: UP   Listeners: 0
Listen in your browser - HTML5 player (in browser, HTML5)
Click here to listen with your own player (launches your MP3 player)
Archive Access: LFMD Ground/Tower
FacilityFrequency
Cannes Ground121.805
Cannes Tower118.625

NOTICE

Unauthorized use prohibited. See LiveATC.net Terms of Service


Airport/ARTCC Code
Frequency Search
(e.g., 124.400, 128.75)
Site-wide search
 


Browse Feeds
Top 50 Feeds
HF Oceanic Feeds
Coverage Map
Bad Weather Areas

LiveATC FAQ
Offer LiveATC feed
Contact LiveATC.net
Press Inquiries

LiveATC on iPhone
LiveATC on Android

Windows Phone
Windows 8/10

LiveATC Mobile
(Mobile browser)

ATC Audio Archives
Interesting Recordings

LiveATC Forums


Home Page
About LiveATC.net
Make a Donation
Terms of Use
Privacy Policy

Canadian Air Freqs

AIRMETs/SIGMETs

FAA Airport Status
NAS Status
Arrival Demand


Server Software By:
Icecast.org
Liquidsoap